Location: Aalen
(48.8330°N, 10.1000°E)
Time: 19:46:46
(UTC+02:00)

UNISAT 6 - Pass Details

Date: 08 April 2023
Orbit: 599 x 680 km, 97.7° (Epoch: 04 June)

Event Time Altitude Azimuth Distance (km) Brightness Sun altitude
Rises 05:09:10 0° 140° (SE) 2,961 ? -15.3°
Reaches altitude 10° 05:11:30 10° 131° (SE) 2,068 ? -15.0°
Maximum altitude 05:15:35 34° 66° (ENE) 1,100 ? -14.4°
Drops below altitude 10° 05:19:44 10° 3° (N) 2,119 ? -13.8°
Sets 05:22:09 0° 354° (N) 3,046 ? -13.4°
